Regional Weather Roundup
Issued by NWS Kansas City/Pleasant Hill, MO

Home | Current Version | Previous Version | Graphics & Text | Print | Product List | Glossary Off
Versions: 1 2 3 4 5 6 7 8 9 10 11 12 13 14 15 16 17 18 19 20 21 22 23 24 25 26 27 28 29 30 31 32 33 34 35 36 37 38 39 40 41 42 43 44 45 46 47 48 49 50

000
ASUS43 KEAX 250110
RWREAX

WEATHER ROUNDUP FOR EASTERN KANSAS AND NORTHWEST MISSOURI
NATIONAL WEATHER SERVICE KANSAS CITY/PLEASANT HILL MO
800 PM CDT FRI OCT 24 2014

KSZ040-057-103>105-MOZ028-029-037-043-250200-
...KANSAS CITY METROPOLITAN AREA...

CITY           SKY/WX    TMP DP  RH WIND       PRES   REMARKS
K.C. INTL      MOCLDY    69  62  78 SW10      29.95R
K.C. DOWNTOWN  MOCLDY    72  61  68 W7        29.94R
LEES SUMMIT    MOCLDY    70  61  73 SW13      29.96R
OLATHE - IXD   MOCLDY    67  61  81 S12       29.96S
OLATHE - OJC   MOCLDY    69  62  78 S12       29.96R
LAWRENCE       PTCLDY    68  61  78 VRB5      29.95R

$$

MOZ001>008-011>017-020>025-030>033-038>040-044>046-053-054-250200-
...NORTHERN AND CENTRAL MISSOURI...

CITY           SKY/WX    TMP DP  RH WIND       PRES   REMARKS
ST. JOSEPH     CLEAR     64  61  90 CALM      29.95R
MOSBY          CLEAR     68  61  77 CALM      29.95R
WHITEMAN AFB   CLEAR     64  60  87 S9        29.96S
CLINTON        PTCLDY    68  63  83 S6        29.99S
SEDALIA        PTCLDY    69  61  75 S10       29.98S
WARSAW         NOT AVBL
MARSHALL       CLEAR     72  63  73 S8        29.97S
CHILLICOTHE      N/A     62  59  90 CALM      29.96R
MOBERLY        CLEAR     68  57  68 SW7       29.96S
KIRKSVILLE     CLEAR     65  60  84 SW6       29.95R

$$

MOZ041-047>049-056>058-063>065-088>090-097-250200-
...EASTERN AND SOUTHERN MISSOURI...

CITY           SKY/WX    TMP DP  RH WIND       PRES   REMARKS
ST. LOUIS INTL MOCLDY    69  49  48 S5        30.00S
SPIRIT OF STL  MOCLDY    62  50  64 CALM      29.99S
COLUMBIA       MOCLDY    66  59  78 S7        29.99S
JEFFERSON CITY MOCLDY    65  58  78 E5        29.98S
MEXICO         MOCLDY    66  63  88 S9        29.97S
HANNIBAL       MOCLDY    64  55  72 S9        29.95F
ROLLA          MOCLDY    64  58  80 S9        30.01S
LEBANON        MOCLDY    66  59  77 S7        30.05S
OSAGE BEACH    MOCLDY    66  57  72 S6        30.02R
SPRINGFIELD    CLEAR     65  59  81 S9        30.03F
BRANSON        CLEAR     63  59  88 S5        30.08S
NEVADA         PTCLDY    64  61  88 S9        30.02S
JOPLIN         CLEAR     64  61  90 S7        30.04S
WEST PLAINS    MOCLDY    64  57  78 S5        30.08R

$$

IAZ060-094-KSZ022-034>040-054-083-096-NEZ052-066-093-250200-
...KANSAS...SOUTHEAST NEBRASKA AND IOWA...

CITY           SKY/WX    TMP DP  RH WIND       PRES   REMARKS
TOPEKA         CLEAR     71  63  75 CALM      29.95R
MANHATTAN      CLEAR     71  62  73 SW5       29.95R
EMPORIA        CLEAR     66  61  84 S10       29.98R
CHANUTE        CLEAR     66  61  84 S7        30.01R
WICHITA        CLEAR     68  59  73 S6        30.01R
OMAHA          PTCLDY    62  57  83 CALM      29.95R
LINCOLN        CLEAR     62  53  72 CALM      29.97R
FALLS CITY     CLEAR     70  61  73 NW3       29.94R
LAMONI         CLEAR     65  61  87 S3        29.95R
DES MOINES     MOCLDY    60  58  92 S7        29.93R FOG

$$




USA.gov is the U.S. government's official web portal to all federal, state and local government web resources and services.